Weather in Yasnogorskiy

Russia / Kemerovo Oblast     55°20′39″N   85°53′29″E
temp.,
°C
wind,
m/s
gust,
m/s
humid.,
%
clouds,
%
prec.,
mm/h
press.,
hPa
HPBL,
m
18 april, sun
sun1801:00−6s2387100 0.0 102360
04:00−4sse3789100 0.0 1020170
07:00−2s3889100 0.0 1018291
10:000sw5108497 0.0 1017720
13:00+3sw5982100 0.0 1015930
16:00+4sw5970100 0.0 10131019
19:00+3ssw61180100 0.1 1011538
22:00+1s61498100 2.3 1007659
19 april, mon
mon1901:00+2ssw51098100 4.9 1001491
04:00+2sw81697100 1.8 998771
07:00−6wnw131881100 2.4 10041070
10:00−7nw101373100 0.1 10131150
13:00−5wnw7957100 0.2 10191470
16:00−4wnw7950100 0.0 10211782
19:00−5nw6857100 0.1 10221477
22:00−7nw586380 0.0 10231257
20 april, tue
tue2001:00−7wnw575756 0.1 10241215
04:00−7wnw5766100 0.0 10241075
07:00−7wnw5667100 0.1 1025963
10:00−6wnw565558 0.0 10251046
13:00−3wnw55455 0.0 10251332
16:00−2wnw56415 0.0 10241496
19:00−2wnw464053 0.0 10241686
22:00−3wsw12525 0.0 102489
21 april, wed
wed2101:00−3ssw3557100 0.0 1024287
04:00−3ssw2559100 0.0 1023287
07:00−3s3657100 0.0 1023424
10:00−1ssw3542100 0.0 10231583
13:00+1s3338100 0.0 10231803
16:00+2se2238100 0.0 10231714
19:00+1e345027 0.0 1024520
22:00−2ne37725 0.0 1026231
22 april, thu
thu2201:00−3ne38633 0.0 1027259
04:00−3nne49601 0.0 1029352
07:00−3nne410640 0.0 1031461
10:000ne685340 0.0 10331422
13:00+2ne6746100 0.1 10341955
16:00+2nne6747100 0.2 10351760
19:00+1nne575781 0.3 1038961
22:00−1nne410695 0.0 1040329